Groton, CT

8:54 PM EST on January 18, 2018 (GMT -0500)
Groton-New London

Weather History for KGON - November, 2011

Change the Weather History Date:

Tuesday, November 8, 2011

  Actual Average Record
Temperature  
Mean Temperature 54 °F -  
Max Temperature 68 °F 53 °F 68 °F (2011)
Min Temperature 41 °F 36 °F 19 °F (1960)
Degree Days  
Heating Degree Days 10    
Growing Degree Days 4 (Base 50)    
Moisture  
Dew Point 46 °F    
Average Humidity 86    
Maximum Humidity 100    
Minimum Humidity 50    
Precipitation  
Precipitation 0.00 in - - ()
Sea Level Pressure  
Sea Level Pressure 30.23 in    
Wind  
Wind Speed 2 mph (WNW)    
Max Wind Speed 9 mph    
Max Gust Speed -    
Visibility 7 miles    
Events      
Averages and records for this station are not official NWS values.
T = Trace of Precipitation, MM = Missing Value Source: NWS Daily Summary

Daily Weather History Graph

Daily Weather History Graph

Search for Another Location

Airport or City:

Trip Planner

Search our weather history database for the weather conditions in past years. The results will help you decide how hot, cold, wet, or windy it might be!

Date:

Astronomy

Nov. 08, 2011 Rise Set
Actual Time 6:27 AM EST 4:35 PM EST
Civil Twilight 5:58 AM EST 5:04 PM EST
Nautical Twilight 5:25 AM EST 5:37 PM EST
Astronomical Twilight 4:53 AM EST 6:10 PM EST
Moon 3:14 PM EST (11/8) 4:23 AM EST (11/8)
Length of Visible Light 11h 06m
Length of Day
10h 07m
Waxing Gibbous, 96% of the Moon is Illuminated
Nov 8
Waxing Gibbous
Nov 10
Full
Nov 18
Last Quarter
Nov 25
New
Dec 2
First Quarter

Hourly Weather History & Observations

Time (EST) Temp. Windchill Dew Point Humidity Pressure Visibility Wind Dir Wind Speed Gust Speed Precip Events Conditions
12:56 AM 44.1 °F - 43.0 °F 96% 30.23 in 5.0 mi Calm Calm - N/A   Clear
1:56 AM 43.0 °F 41.3 °F 42.1 °F 97% 30.23 in 6.0 mi NNE 3.5 mph - N/A   Clear
2:33 AM 42.8 °F - 42.8 °F 100% 30.23 in 1.8 mi Calm Calm - N/A   Clear
2:50 AM 41.0 °F - 39.2 °F 93% 30.22 in 3.0 mi Calm Calm - N/A   Clear
2:56 AM 42.1 °F 40.2 °F 41.0 °F 96% 30.22 in 2.5 mi Variable 3.5 mph - N/A   Clear
3:35 AM 41.0 °F - 41.0 °F 100% 30.22 in 6.0 mi Calm Calm - N/A   Clear
3:56 AM 42.1 °F - 41.0 °F 96% 30.23 in 6.0 mi Calm Calm - N/A   Clear
4:56 AM 42.1 °F 40.2 °F 41.0 °F 96% 30.23 in 6.0 mi North 3.5 mph - N/A   Clear
5:56 AM 41.0 °F 39.0 °F 41.0 °F 100% 30.24 in 4.0 mi North 3.5 mph - N/A   Clear
6:56 AM 42.1 °F - 41.0 °F 96% 30.26 in 6.0 mi Calm Calm - N/A   Clear
7:56 AM 48.0 °F - 46.0 °F 93% 30.27 in 8.0 mi Calm Calm - N/A   Clear
8:56 AM 54.0 °F - 48.0 °F 80% 30.27 in 10.0 mi Calm Calm - N/A   Clear
9:56 AM 61.0 °F - 51.1 °F 70% 30.26 in 10.0 mi Variable 3.5 mph - N/A   Clear
10:56 AM 66.9 °F - 50.0 °F 54% 30.25 in 10.0 mi NNE 5.8 mph - N/A   Clear
11:56 AM 68.0 °F - 48.9 °F 50% 30.23 in 10.0 mi Variable 4.6 mph - N/A   Clear
12:56 PM 63.0 °F - 52.0 °F 67% 30.21 in 10.0 mi SSW 6.9 mph - N/A   Clear
1:56 PM 63.0 °F - 51.1 °F 65% 30.21 in 10.0 mi SW 9.2 mph - N/A   Clear
2:56 PM 63.0 °F - 50.0 °F 63% 30.21 in 10.0 mi SW 4.6 mph - N/A   Clear
3:56 PM 61.0 °F - 50.0 °F 67% 30.21 in 10.0 mi SW 5.8 mph - N/A   Clear
4:56 PM 55.9 °F - 52.0 °F 87% 30.22 in 10.0 mi Calm Calm - N/A   Clear
5:56 PM 54.0 °F - 51.1 °F 90% 30.23 in 10.0 mi Calm Calm - N/A   Clear
6:56 PM 50.0 °F - 46.9 °F 89% 30.24 in 10.0 mi Calm Calm - N/A   Clear
7:56 PM 48.0 °F - 46.9 °F 96% 30.24 in 9.0 mi Calm Calm - N/A   Clear
8:56 PM 46.9 °F - 46.0 °F 97% 30.24 in 7.0 mi Calm Calm - N/A   Clear
9:56 PM 46.4 °F - 46.4 °F 100% 30.24 in 7.0 mi Calm Calm - N/A   Clear
10:56 PM 46.0 °F - 45.0 °F 96% 30.23 in 6.0 mi Calm Calm - N/A   Clear
11:56 PM 45.0 °F - 44.1 °F 97% 30.22 in 7.0 mi Calm Calm - N/A   Clear